Location: East Guldeford
(50.9500°N, 0.7500°E)
Time: 18:10:03
(UTC+00:00)

SJ 16-02 - Pass Details

Date: 12 May 2021
Orbit: 606 x 616 km, 75.0° (Epoch: 16 June)

Event Time Altitude Azimuth Distance (km) Brightness Sun altitude
Rises 23:11:36 0° 253° (WSW) 2,885 4.7 -20.1°
Reaches altitude 10° 23:14:41 10° 276° (W) 1,985 4.1 -20.1°
Maximum altitude 23:17:21 16° 313° (NW) 1,652 4.2 -20.2°
Drops below altitude 10° 23:20:02 10° 351° (N) 1,991 5.2 -20.3°
Sets 23:23:09 0° 14° (NNE) 2,900 6.0 -20.3°
